Time,TemperatureF,DewpointF,PressureIn,WindDirection,WindDirectionDegrees,WindSpeedMPH,WindSpeedGustMPH,Humidity,HourlyPrecipIn,Conditions,Clouds,dailyrainin,SoftwareType,DateUTC
2013-05-08 00:23:00,60.0,58.0,-100.00,West,260,4.0,-999.0,94,0.00,,,-99.99,,2013-05-08 04:23:00,
2013-05-08 00:33:00,60.0,58.0,-100.00,West,260,4.0,-999.0,94,0.00,,,-99.99,,2013-05-08 04:33:00,
2013-05-08 00:43:00,60.0,58.0,-100.00,West,260,4.0,-999.0,94,0.00,,,-99.99,,2013-05-08 04:43:00,
2013-05-08 01:22:00,59.0,58.0,-100.00,WSW,250,1.0,-999.0,96,0.00,,,-99.99,,2013-05-08 05:22:00,
2013-05-08 01:32:00,59.0,58.0,-100.00,WSW,250,1.0,-999.0,96,0.00,,,-99.99,,2013-05-08 05:32:00,
2013-05-08 01:42:00,59.0,58.0,-100.00,WSW,250,1.0,-999.0,96,0.00,,,-99.99,,2013-05-08 05:42:00,
2013-05-08 02:22:00,59.0,58.0,-100.00,West,268,2.0,-999.0,97,0.00,,,-99.99,,2013-05-08 06:22:00,
2013-05-08 02:32:00,59.0,58.0,-100.00,West,268,2.0,-999.0,97,0.00,,,-99.99,,2013-05-08 06:32:00,
2013-05-08 02:42:00,59.0,58.0,-100.00,West,268,2.0,-999.0,97,0.00,,,-99.99,,2013-05-08 06:42:00,
2013-05-08 03:22:00,58.0,58.0,-100.00,West,263,3.0,-999.0,98,0.00,,,-99.99,,2013-05-08 07:22:00,
2013-05-08 03:32:00,58.0,58.0,-100.00,West,263,3.0,-999.0,98,0.00,,,-99.99,,2013-05-08 07:32:00,
2013-05-08 03:42:00,58.0,58.0,-100.00,West,263,3.0,-999.0,98,0.00,,,-99.99,,2013-05-08 07:42:00,
2013-05-08 04:22:00,57.0,56.0,-100.00,WNW,282,4.0,-999.0,96,0.00,,,-99.99,,2013-05-08 08:22:00,
2013-05-08 04:32:00,57.0,56.0,-100.00,WNW,282,4.0,-999.0,96,0.00,,,-99.99,,2013-05-08 08:32:00,
2013-05-08 04:42:00,57.0,56.0,-100.00,WNW,282,4.0,-999.0,96,0.00,,,-99.99,,2013-05-08 08:42:00,
2013-05-08 05:22:00,56.0,55.0,-100.00,WNW,282,2.0,-999.0,96,0.00,,,-99.99,,2013-05-08 09:22:00,
2013-05-08 05:32:00,56.0,55.0,-100.00,WNW,282,2.0,-999.0,96,0.00,,,-99.99,,2013-05-08 09:32:00,
2013-05-08 05:42:00,56.0,55.0,-100.00,WNW,282,2.0,-999.0,96,0.00,,,-99.99,,2013-05-08 09:42:00,
2013-05-08 06:23:00,54.0,53.0,-100.00,WNW,296,2.0,-999.0,97,0.00,,,-99.99,,2013-05-08 10:23:00,
2013-05-08 06:33:00,54.0,53.0,-100.00,WNW,296,2.0,-999.0,97,0.00,,,-99.99,,2013-05-08 10:33:00,
2013-05-08 06:42:00,54.0,53.0,-100.00,WNW,296,2.0,-999.0,97,0.00,,,-99.99,,2013-05-08 10:42:00,
2013-05-08 07:22:00,55.0,54.0,-100.00,West,265,1.0,-999.0,98,0.00,,,-99.99,,2013-05-08 11:22:00,
2013-05-08 07:32:00,55.0,54.0,-100.00,West,265,1.0,-999.0,98,0.00,,,-99.99,,2013-05-08 11:32:00,
2013-05-08 07:42:00,55.0,54.0,-100.00,West,265,1.0,-999.0,98,0.00,,,-99.99,,2013-05-08 11:42:00,
2013-05-08 08:22:00,58.0,56.0,-100.00,SW,220,5.0,-999.0,92,0.00,,,-99.99,,2013-05-08 12:22:00,
2013-05-08 08:32:00,58.0,56.0,-100.00,SW,220,5.0,-999.0,92,0.00,,,-99.99,,2013-05-08 12:32:00,
2013-05-08 08:42:00,58.0,56.0,-100.00,SW,220,5.0,-999.0,92,0.00,,,-99.99,,2013-05-08 12:42:00,
2013-05-08 09:21:00,61.0,55.0,-100.00,SW,228,8.0,-999.0,80,0.00,,,-99.99,,2013-05-08 13:21:00,
2013-05-08 09:32:00,61.0,55.0,-100.00,SW,228,8.0,-999.0,80,0.00,,,-99.99,,2013-05-08 13:32:00,
2013-05-08 09:42:00,61.0,55.0,-100.00,SW,228,8.0,-999.0,80,0.00,,,-99.99,,2013-05-08 13:42:00,
2013-05-08 10:22:00,64.0,55.0,-100.00,SW,228,8.0,-999.0,72,0.00,,,-99.99,,2013-05-08 14:22:00,
2013-05-08 10:32:00,64.0,55.0,-100.00,SW,228,8.0,-999.0,72,0.00,,,-99.99,,2013-05-08 14:32:00,
2013-05-08 10:42:00,64.0,55.0,-100.00,SW,228,8.0,-999.0,72,0.00,,,-99.99,,2013-05-08 14:42:00,
2013-05-08 11:22:00,66.0,56.0,-100.00,SW,231,10.0,-999.0,68,0.00,,,-99.99,,2013-05-08 15:22:00,
2013-05-08 11:33:00,66.0,56.0,-100.00,SW,231,10.0,-999.0,68,0.00,,,-99.99,,2013-05-08 15:33:00,
2013-05-08 11:42:00,66.0,56.0,-100.00,SW,231,10.0,-999.0,68,0.00,,,-99.99,,2013-05-08 15:42:00,
2013-05-08 12:23:00,69.0,56.0,-100.00,SW,216,10.0,-999.0,64,0.00,,,-99.99,,2013-05-08 16:23:00,
2013-05-08 12:33:00,69.0,56.0,-100.00,SW,216,10.0,-999.0,64,0.00,,,-99.99,,2013-05-08 16:33:00,
2013-05-08 12:42:00,69.0,56.0,-100.00,SW,216,10.0,-999.0,64,0.00,,,-99.99,,2013-05-08 16:42:00,
2013-05-08 13:22:00,71.0,59.0,-100.00,South,189,13.0,-999.0,66,0.00,,,-99.99,,2013-05-08 17:22:00,
2013-05-08 13:32:00,71.0,59.0,-100.00,South,189,13.0,-999.0,66,0.00,,,-99.99,,2013-05-08 17:32:00,
2013-05-08 13:42:00,71.0,59.0,-100.00,South,189,13.0,-999.0,66,0.00,,,-99.99,,2013-05-08 17:42:00,
2013-05-08 14:12:00,71.0,60.0,-100.00,South,191,15.0,-999.0,68,0.00,,,-99.99,,2013-05-08 18:12:00,
2013-05-08 14:22:00,71.0,60.0,-100.00,South,191,15.0,-999.0,68,0.00,,,-99.99,,2013-05-08 18:22:00,
2013-05-08 14:32:00,71.0,60.0,-100.00,South,191,15.0,-999.0,68,0.00,,,-99.99,,2013-05-08 18:32:00,
2013-05-08 14:42:00,71.0,60.0,-100.00,South,191,15.0,-999.0,68,0.00,,,-99.99,,2013-05-08 18:42:00,
2013-05-08 15:11:00,73.0,60.0,-100.00,SSW,195,16.0,-999.0,65,0.00,,,-99.99,,2013-05-08 19:11:00,
2013-05-08 15:22:00,73.0,60.0,-100.00,SSW,195,16.0,-999.0,65,0.00,,,-99.99,,2013-05-08 19:22:00,
2013-05-08 15:32:00,73.0,60.0,-100.00,SSW,195,16.0,-999.0,65,0.00,,,-99.99,,2013-05-08 19:32:00,
2013-05-08 15:42:00,73.0,60.0,-100.00,SSW,195,16.0,-999.0,65,0.00,,,-99.99,,2013-05-08 19:42:00,
2013-05-08 16:12:00,72.0,61.0,-100.00,SSW,197,16.0,-999.0,67,0.00,,,-99.99,,2013-05-08 20:12:00,
2013-05-08 16:22:00,72.0,61.0,-100.00,SSW,197,16.0,-999.0,67,0.00,,,-99.99,,2013-05-08 20:22:00,
2013-05-08 16:32:00,72.0,61.0,-100.00,SSW,197,16.0,-999.0,67,0.00,,,-99.99,,2013-05-08 20:32:00,
2013-05-08 16:42:00,72.0,61.0,-100.00,SSW,197,16.0,-999.0,67,0.00,,,-99.99,,2013-05-08 20:42:00,
2013-05-08 17:12:00,73.0,60.0,-100.00,SSW,213,15.0,-999.0,64,0.00,,,-99.99,,2013-05-08 21:12:00,
2013-05-08 17:21:00,73.0,60.0,-100.00,SSW,213,15.0,-999.0,64,0.00,,,-99.99,,2013-05-08 21:21:00,
2013-05-08 17:33:00,73.0,60.0,-100.00,SSW,213,15.0,-999.0,64,0.00,,,-99.99,,2013-05-08 21:33:00,
2013-05-08 17:43:00,73.0,60.0,-100.00,SSW,213,15.0,-999.0,64,0.00,,,-99.99,,2013-05-08 21:43:00,
2013-05-08 18:12:00,73.0,59.0,-100.00,SW,217,15.0,-999.0,62,0.00,,,-99.99,,2013-05-08 22:12:00,
2013-05-08 18:22:00,73.0,59.0,-100.00,SW,217,15.0,-999.0,62,0.00,,,-99.99,,2013-05-08 22:22:00,
2013-05-08 18:33:00,73.0,59.0,-100.00,SW,217,15.0,-999.0,62,0.00,,,-99.99,,2013-05-08 22:33:00,
2013-05-08 18:42:00,73.0,59.0,-100.00,SW,217,15.0,-999.0,62,0.00,,,-99.99,,2013-05-08 22:42:00,
2013-05-08 19:12:00,72.0,59.0,-100.00,SW,215,15.0,-999.0,63,0.00,,,-99.99,,2013-05-08 23:12:00,
2013-05-08 19:22:00,72.0,59.0,-100.00,SW,215,15.0,-999.0,63,0.00,,,-99.99,,2013-05-08 23:22:00,
2013-05-08 19:32:00,72.0,59.0,-100.00,SW,215,15.0,-999.0,63,0.00,,,-99.99,,2013-05-08 23:32:00,
2013-05-08 19:42:00,72.0,59.0,-100.00,SW,215,15.0,-999.0,63,0.00,,,-99.99,,2013-05-08 23:42:00,
2013-05-08 20:12:00,69.0,59.0,-100.00,SW,218,13.0,-999.0,69,0.00,,,-99.99,,2013-05-09 00:12:00,
2013-05-08 20:21:00,69.0,59.0,-100.00,SW,218,13.0,-999.0,69,0.00,,,-99.99,,2013-05-09 00:21:00,
2013-05-08 20:32:00,69.0,59.0,-100.00,SW,218,13.0,-999.0,69,0.00,,,-99.99,,2013-05-09 00:32:00,
2013-05-08 20:42:00,69.0,59.0,-100.00,SW,218,13.0,-999.0,69,0.00,,,-99.99,,2013-05-09 00:42:00,
2013-05-08 21:12:00,68.0,60.0,-100.00,SW,215,14.0,-999.0,76,0.00,,,-99.99,,2013-05-09 01:12:00,
2013-05-08 21:22:00,68.0,60.0,-100.00,SW,215,14.0,-999.0,76,0.00,,,-99.99,,2013-05-09 01:22:00,
2013-05-08 21:32:00,68.0,60.0,-100.00,SW,215,14.0,-999.0,76,0.00,,,-99.99,,2013-05-09 01:32:00,
2013-05-08 21:42:00,68.0,60.0,-100.00,SW,215,14.0,-999.0,76,0.00,,,-99.99,,2013-05-09 01:42:00,
2013-05-08 22:12:00,67.0,61.0,-100.00,SW,217,13.0,-999.0,80,0.00,,,-99.99,,2013-05-09 02:12:00,
2013-05-08 22:22:00,67.0,61.0,-100.00,SW,217,13.0,-999.0,80,0.00,,,-99.99,,2013-05-09 02:22:00,
2013-05-08 22:33:00,67.0,61.0,-100.00,SW,217,13.0,-999.0,80,0.00,,,-99.99,,2013-05-09 02:33:00,
2013-05-08 22:42:00,67.0,61.0,-100.00,SW,217,13.0,-999.0,80,0.00,,,-99.99,,2013-05-09 02:42:00,
2013-05-08 23:11:00,68.0,61.0,-100.00,SW,229,13.0,-999.0,80,0.00,,,-99.99,,2013-05-09 03:11:00,
2013-05-08 23:21:00,68.0,61.0,-100.00,SW,229,13.0,-999.0,80,0.00,,,-99.99,,2013-05-09 03:21:00,
2013-05-08 23:33:00,68.0,61.0,-100.00,SW,229,13.0,-999.0,80,0.00,,,-99.99,,2013-05-09 03:33:00,
2013-05-08 23:43:00,68.0,61.0,-100.00,SW,229,13.0,-999.0,80,0.00,,,-99.99,,2013-05-09 03:43:00,